Simultaneous Nadir Overpasses (SNOs) Predictions

Prediction of SNOs between NPP and TERRA Satellite Orbit:

Table of predicted SNOs for the next 14.0 days since TLE Epoch: 9/28/2015
Index Date (NPP) Time (NPP) Lat,Lon (NPP) SZA (NPP ) Date (TERRA) Time (TERRA) Lat,Lon (TERRA) SZA (TERRA ) Distance(km) Time Diff (sec)
1 09/29/2015 09:00:52 -68.75,-136.18 109.01 09/29/2015 09:01:35 -68.74,-136.13 109.02 2.34 43
2 09/29/2015 09:51:36 68.61, 31.32 70.87 09/29/2015 09:51:02 68.63, 31.38 70.88 3.25 34
3 10/02/2015 00:27:13 69.30, 171.52 72.57 10/02/2015 00:28:23 69.21, 172.74 72.49 48.98 70
4 10/02/2015 01:17:44 -68.64, -20.27 108.08 10/02/2015 01:18:01 -68.66, -20.33 108.06 3.30 17
5 10/02/2015 02:08:29 68.56, 147.15 71.86 10/02/2015 02:07:28 68.54, 147.17 71.84 1.91 61
6 10/04/2015 16:43:56 68.72, -71.92 73.02 10/04/2015 16:44:56 68.73, -71.99 73.03 2.92 60
7 10/04/2015 17:34:38 -68.64, 95.50 107.04 10/04/2015 17:34:26 -68.62, 95.52 107.07 2.84 12
8 10/04/2015 18:25:12 67.97, -96.33 72.32 10/04/2015 18:24:02 68.00, -97.59 72.32 52.40 70
9 10/07/2015 09:00:49 68.67, 43.91 74.01 10/07/2015 09:01:21 68.67, 43.85 74.01 2.35 32
10 10/07/2015 09:51:31 -68.60,-148.67 106.05 10/07/2015 09:50:51 -68.57,-148.65 106.09 3.17 40
11 10/10/2015 00:27:03 -69.08, -8.19 104.58 10/10/2015 00:28:14 -68.96, -7.54 104.69 29.10 71
12 10/10/2015 01:17:41 68.64, 159.72 75.00 10/10/2015 01:17:45 68.61, 159.67 74.97 3.42 4
13 10/10/2015 02:08:22 -68.50, -32.78
